Overview Statistics Trail Chart Weather Telemetry Raw packets
 

This is the latest recevied weather packets stored in our database for station/object N0QV. If no packets are shown the sender has not sent any weather packets the latest 10 day(s).

<< 64 65 66 67 68 69 70 >>
Time Temp. Humidity Pressure Rain* Wind** Luminosity Snow
1788224658 25.56° C 70% 1013 hPa 0 mm - 0 W/m² -
1788224357 25.56° C 68% 1013 hPa 0 mm - 0 W/m² -
1788224052 26.11° C 68% 1013 hPa 0 mm - 1 W/m² -
1788223748 26.11° C 68% 1012.9 hPa 0 mm - 3 W/m² -
1788223447 26.11° C 69% 1012.9 hPa 0 mm - 5 W/m² -
1788223142 26.67° C 67% 1013 hPa 0 mm - 9 W/m² -
1788222837 26.67° C 66% 1012.8 hPa 0 mm - 13 W/m² -
1788222535 27.22° C 65% 1012.8 hPa 0 mm - 18 W/m² -
1788222234 27.22° C 65% 1012.9 hPa 0 mm - 21 W/m² -
1788221929 27.78° C 61% 1012.9 hPa 0 mm - 22 W/m² -
1788221625 27.78° C 61% 1012.8 hPa 0 mm - 22 W/m² -
1788221321 27.78° C 60% 1013 hPa 0 mm - 24 W/m² -
1788221016 28.33° C 61% 1013.1 hPa 0 mm - 23 W/m² -
1788220714 28.33° C 59% 1013 hPa 0 mm - 24 W/m² -
1788220410 28.89° C 58% 1012.8 hPa 0 mm - 29 W/m² -
1788220105 28.89° C 57% 1012.8 hPa 0 mm - 33 W/m² -
1788219805 28.89° C 56% 1012.9 hPa 0 mm - 32 W/m² -
1788219500 28.89° C 57% 1012.9 hPa 0 mm - 32 W/m² -
1788219195 28.89° C 57% 1012.9 hPa 0 mm - 34 W/m² -
1788218890 29.44° C 56% 1012.9 hPa 0 mm - 37 W/m² -
1788218587 29.44° C 57% 1012.8 hPa 0 mm - 38 W/m² -
1788218283 29.44° C 57% 1012.6 hPa 0 mm - 46 W/m² -
1788217980 30° C 56% 1012.9 hPa 0 mm - 42 W/m² -
1788217679 30° C 55% 1012.7 hPa 0 mm - 45 W/m² -
1788217374 30.56° C 54% 1012.7 hPa 0 mm - 54 W/m² -

* Rain latest hour (hover to see other rain measurements)
** Current wind speed in m/s (hover to see current wind gust speed)